Home   Weather   Beirut   Past weeks

Flag for Lebanon Past Weather in Beirut, Lebanon — Yesterday and Last 2 Weeks

Now
84 °F

Sunny.


Feels Like: 88 °F
Forecast: 79 / 85 °F
Wind: 8 mph from Northwest

Location: Beirut Airport

Current Time: Aug 20, 2017 at 6:47:00 pm

Latest Report: Aug 20, 2017 at 6:00 pm


Visibility: N/A

Pressure: 29.86 "Hg

Humidity: 62%

Dew Point: 70 °F

Location of BeirutLocation

Past Weather in Beirut — Graph

°F

Beirut Temperature Yesterday

Maximum temperature yesterday: 88 °F (at 2:00 pm)
Minimum temperature yesterday: 79 °F (at 5:00 am)
Average temperature yesterday: 83 °F

High & Low Weather Summary for the Past Weeks

 TemperatureHumidityPressure
High88 °F (Aug 7, 12:00 pm)79% (Aug 9, 12:00 am)29.92 "Hg (Aug 9, 12:00 am)
Low77 °F (Aug 6, 7:00 am)39% (Aug 20, 8:00 am)29.68 "Hg (Aug 16, 4:00 am)
Average84 °F66%29.80 "Hg
* Reported Aug 5 5:00 pm — Aug 20 5:00 pm, Beirut. Weather by CustomWeather, © 2017

Note: Actual official high and low records may vary slightly from our data, if they occured in-between our weather recording intervals... More about our weather records

Advertising

Beirut Weather History for the Previous 24 Hours

Scroll right to see more
 ConditionsComfort  
Time TempWeatherWind HumidityBarometerVisibility
5:00 pm
Sun, Aug 20
86 °FSunny.8 mph59%29.86 "HgN/A
4:00 pm86 °FPassing clouds.9 mph59%29.86 "HgN/A
3:00 pm86 °FPassing clouds.9 mph55%29.86 "HgN/A
2:00 pm86 °FSunny.9 mph59%29.89 "Hg5 mi
1:00 pm86 °FPassing clouds.9 mph59%29.89 "Hg5 mi
12:00 pm84 °FPassing clouds.9 mph62%29.89 "Hg5 mi
11:00 am86 °FPassing clouds.9 mph59%29.89 "Hg5 mi
10:00 am84 °FPassing clouds.8 mph62%29.89 "Hg5 mi
9:00 am86 °FPassing clouds.1 mph52%29.89 "Hg5 mi
8:00 am81 °FPassing clouds.5 mph39%29.86 "Hg5 mi
7:00 am79 °FScattered clouds.6 mph48%29.86 "Hg5 mi
6:00 am79 °FPassing clouds.6 mph54%29.86 "Hg5 mi
5:00 am79 °FPassing clouds.5 mph58%29.86 "Hg4 mi
4:00 am79 °FPassing clouds.5 mph65%29.86 "Hg4 mi
3:00 am81 °FPassing clouds.5 mph62%29.89 "Hg4 mi
2:00 am81 °FPassing clouds.5 mph66%29.89 "Hg4 mi
1:00 am81 °FPassing clouds.3 mph66%29.89 "Hg5 mi
12:00 am81 °FPassing clouds.5 mph66%29.92 "Hg5 mi
11:00 pm
Sat, Aug 19
81 °FPassing clouds.5 mph66%29.92 "Hg5 mi
10:00 pm82 °FPassing clouds.2 mph62%29.92 "Hg5 mi
9:00 pm82 °FClear.3 mph62%29.92 "Hg5 mi
8:00 pm82 °FPassing clouds.3 mph62%29.89 "HgN/A
7:00 pm84 °FSunny.5 mph58%29.89 "Hg10 mi
6:00 pm84 °FPassing clouds.6 mph58%29.89 "HgN/A
Weather by CustomWeather, © 2017

See weather overviewHow to use our weather pages